Regional Weather Roundup
Issued by NWS

Home | Current Version | Previous Version | Graphics & Text | Print | Product List | Glossary Off
Versions: 1 2 3 4 5 6 7 8 9 10 11 12 13 14 15 16 17 18 19 20 21 22 23 24 25 26 27 28 29 30 31 32 33 34 35 36 37 38 39 40 41 42 43 44 45 46 47 48 49 50

000
ASUS43 KTOP 270708
RWRKS

WEATHER ROUNDUP FOR KANSAS
NATIONAL WEATHER SERVICE GOODLAND KS
200 AM CDT THU APR 27 2017

NOTE:  "FAIR" INDICATES FEW OR NO CLOUDS BELOW 12,000 FEET WITH NO
SIGNIFICANT WEATHER AND/OR OBSTRUCTIONS TO VISIBILITY.

KSZ001>006-013>018-027>032-041>047-270800-
NORTHWEST KANSAS

CITY           SKY/WX    TMP DP  RH WIND       PRES   REMARKS
GOODLAND       CLOUDY    38  32  79 S3        29.70F
HAYS           CLEAR     36  33  89 CALM      29.75F
HILL CITY      CLEAR     31  29  92 CALM      29.75F
RUSSELL        CLEAR     33  29  85 CALM      29.74S
$$

KSZ061>065-074>080-084>089-270800-
SOUTHWEST KANSAS

CITY           SKY/WX    TMP DP  RH WIND       PRES   REMARKS
DODGE CITY     CLEAR     38  32  79 S6        29.74S
ELKHART          N/A     46  34  63 S7          N/A
GARDEN CITY    CLEAR     40  29  64 SE6       29.71F
LIBERAL        CLOUDY    44  38  79 SE7       29.73F
PRATT          CLEAR     38  33  82 CALM      29.75S
$$

KSZ066>073-081>083-090>101-270800-
SOUTHEAST KANSAS

CITY           SKY/WX    TMP DP  RH WIND       PRES   REMARKS
CHANUTE        CLEAR     39  36  89 W5        29.72S
COFFEYVILLE    CLEAR     45  40  82 CALM      29.73S
HUTCHINSON     CLEAR     36  34  92 NW6       29.74S
MEDICINE LODGE   N/A     39  35  86 CALM      29.76R
PARSONS        CLEAR     39  38  96 CALM      29.73S FOG
WICHITA INTL   CLEAR     39  36  89 NW5       29.74S
WICHITA JABRA  CLEAR     40  36  86 W5        29.74R
WICHITA MCCONL CLEAR     43  37  79 N5        29.73S
WINFIELD       CLEAR     40  37  89 CALM      29.76R
$$

KSZ007>012-019>026-033>040-048>060-102>105-270800-
NORTHEAST KANSAS

CITY           SKY/WX    TMP DP  RH WIND       PRES   REMARKS
CONCORDIA      CLEAR     34  30  85 N6        29.73S
EMPORIA        CLEAR     39  36  89 W6        29.72S
LAWRENCE       CLOUDY    45  36  70 NW12      29.70R
MANHATTAN      CLEAR     40  33  76 W3        29.72S
MARYSVILLE     CLEAR     37  32  81 NW6       29.71F
OLATHE IND     CLOUDY    43  35  73 NW12      29.69R
OLATHE EXE     CLOUDY    42  35  76 NW10      29.67S
SALINA         PTCLDY    38  32  79 W8        29.76R
TOPEKA BILLARD CLOUDY    45  37  73 NW8       29.70S
TOPEKA FORBES  CLOUDY    46  35  65 NW10      29.69F
$$




USA.gov is the U.S. government's official web portal to all federal, state and local government web resources and services.